BM2MWA-13 Weather Reports


time (UTC)temp
C
wind
direction
speed
KPH
gust
KPH
rain 1hr
cm
rain 24hr
cm
rain mn
cm
humidity
%
barometer
mb
20260509075704 20 100 11.3 41.8 0.00 0.00 0.00 88 1012.0
20260509074704 20 120 11.3 41.8 0.00 0.00 0.00 88 1012.1
20260509073703 20 120 11.3 41.8 0.00 0.00 0.00 87 1012.1
20260509072703 20 110 12.9 41.8 0.00 0.00 0.00 86 1012.2
20260509071704 20 100 16.1 41.8 0.00 0.00 0.00 86 1012.1
20260509070703 20 110 14.5 41.8 0.00 0.00 0.00 85 1012.1
20260509065704 20 110 14.5 41.8 0.00 0.00 0.00 85 1012.0
20260509064703 20 100 14.5 41.8 0.00 0.00 0.00 85 1012.1
20260509063703 20 90 19.3 41.8 0.00 0.00 0.00 85 1012.2
20260509062703 20 100 16.1 41.8 0.00 0.00 0.00 86 1012.1
20260509061703 20 100 12.9 41.8 0.00 0.00 0.00 86 1012.6
20260509060703 20 100 12.9 45.1 0.00 0.00 0.00 87 1012.6
20260509055703 20 100 16.1 45.1 0.00 0.00 0.00 85 1012.5
20260509054704 20 100 17.7 45.1 0.00 0.00 0.00 86 1012.7
20260509053704 20 100 16.1 45.1 0.00 0.00 0.00 88 1013.0
20260509052704 20 100 14.5 45.1 0.00 0.00 0.00 86 1013.0
20260509051704 20 100 16.1 45.1 0.00 0.00 0.00 84 1013.2
20260509050704 20 100 16.1 41.8 0.00 0.00 0.00 82 1013.4
20260509045703 20 100 17.7 41.8 0.00 0.00 0.00 83 1013.3
20260509044704 20 110 19.3 41.8 0.00 0.00 0.00 84 1013.6
20260509043703 20 100 16.1 41.8 0.00 0.00 0.00 82 1013.6
20260509042704 20 100 17.7 41.8 0.00 0.00 0.00 80 1013.5
20260509041703 20 100 14.5 41.8 0.00 0.00 0.00 81 1013.5
20260509040703 20 100 16.1 33.8 0.00 0.00 0.00 82 1013.9
20260509035704 21 110 16.1 33.8 0.00 0.00 0.00 81 1014.1
20260509034703 21 100 12.9 33.8 0.00 0.00 0.00 82 1013.9
20260509033703 20 100 14.5 33.8 0.00 0.00 0.00 86 1014.1
20260509032703 20 100 14.5 33.8 0.00 0.00 0.00 87 1014.4
20260509031704 20 100 12.9 33.8 0.00 0.00 0.00 87 1014.4
20260509030703 20 110 11.3 32.2 0.00 0.00 0.00 87 1014.6
20260509025704 20 100 14.5 32.2 0.00 0.00 0.00 87 1014.8
20260509024703 20 110 9.7 32.2 0.00 0.00 0.00 87 1015.0
20260509023704 20 110 14.5 32.2 0.00 0.00 0.00 87 1014.9
20260509022704 20 110 11.3 32.2 0.00 0.00 0.00 87 1014.9
20260509021704 20 110 11.3 32.2 0.00 0.00 0.00 86 1015.1
20260509020703 20 110 11.3 25.7 0.00 0.00 0.00 88 1015.0
20260509015704 20 100 12.9 25.7 0.00 0.00 0.00 88 1015.0
20260509014704 20 110 14.5 25.7 0.00 0.00 0.00 88 1014.9
20260509013703 20 110 12.9 25.7 0.00 0.00 0.00 88 1014.8
20260509012703 20 110 9.7 25.7 0.00 0.00 0.00 88 1014.9
20260509011704 20 110 9.7 25.7 0.00 0.00 0.00 89 1014.8
20260509010704 20 120 9.7 32.2 0.00 0.00 0.00 87 1014.7
20260509005703 20 110 8.0 32.2 0.00 0.00 0.00 87 1014.6
20260509004703 20 120 9.7 32.2 0.00 0.00 0.00 86 1014.5
20260509003703 20 120 8.0 32.2 0.00 0.00 0.00 85 1014.5
20260509002703 20 110 8.0 32.2 0.00 0.00 0.00 85 1014.4
20260509001703 20 120 9.7 32.2 0.00 0.00 0.00 85 1014.3
20260509000704 20 120 9.7 32.2 0.00 0.00 0.00 84 1014.1
20260508235704 20 120 9.7 32.2 0.00 0.00 0.00 86 1014.0
20260508234703 20 120 8.0 32.2 0.00 0.00 0.00 85 1014.0
20260508233703 20 120 8.0 32.2 0.00 0.00 0.00 85 1013.9
20260508232703 20 120 8.0 32.2 0.00 0.00 0.00 85 1013.9
20260508231703 20 110 9.7 32.2 0.00 0.00 0.00 85 1013.9
20260508230703 20 120 8.0 25.7 0.00 0.00 0.00 84 1013.7
20260508225703 20 110 9.7 25.7 0.00 0.00 0.00 84 1013.6
20260508224703 20 110 11.3 25.7 0.00 0.00 0.00 84 1013.5
20260508223703 20 100 11.3 25.7 0.00 0.00 0.00 84 1013.5
20260508222704 20 110 9.7 25.7 0.00 0.00 0.00 84 1013.3
20260508221704 20 120 11.3 25.7 0.00 0.00 0.00 84 1013.3
20260508220703 20 110 9.7 25.7 0.00 0.00 0.00 84 1013.3
20260508215703 20 100 9.7 25.7 0.00 0.00 0.00 84 1013.2
20260508214703 20 100 8.0 25.7 0.00 0.00 0.00 84 1013.1
20260508213703 20 120 9.7 25.7 0.00 0.00 0.00 83 1012.8
20260508212703 20 110 8.0 25.7 0.00 0.00 0.00 84 1012.8
20260508211704 20 110 9.7 25.7 0.00 0.00 0.00 84 1012.7
20260508210703 20 110 8.0 27.4 0.00 0.00 0.00 84 1012.6
20260508205703 20 110 11.3 27.4 0.00 0.00 0.00 84 1012.4
20260508204703 20 110 6.4 27.4 0.00 0.00 0.00 85 1012.3
20260508203703 20 110 11.3 27.4 0.00 0.00 0.00 85 1012.0
20260508202703 20 120 9.7 27.4 0.00 0.00 0.00 86 1012.1
20260508201703 20 110 8.0 27.4 0.00 0.00 0.00 86 1012.2
20260508200705 20 110 8.0 27.4 0.00 0.00 0.00 86 1012.2
20260508195703 20 110 9.7 27.4 0.00 0.00 0.00 86 1012.1
20260508194703 20 120 9.7 27.4 0.00 0.00 0.00 87 1011.9
20260508193703 20 110 11.3 27.4 0.00 0.00 0.00 87 1011.6
20260508192703 20 110 9.7 27.4 0.00 0.00 0.00 86 1011.9
20260508191704 20 120 9.7 27.4 0.00 0.00 0.00 86 1011.9
20260508190703 20 120 9.7 27.4 0.00 0.00 0.00 86 1012.0
20260508185703 20 130 9.7 27.4 0.00 0.00 0.00 86 1012.1
20260508184703 20 110 9.7 27.4 0.00 0.00 0.00 86 1012.2
20260508183703 20 110 9.7 27.4 0.00 0.00 0.00 85 1012.3
20260508182703 20 100 11.3 27.4 0.00 0.00 0.00 86 1012.3
20260508181703 20 100 9.7 27.4 0.00 0.00 0.00 87 1012.3
20260508180704 20 110 8.0 22.5 0.00 0.00 0.00 87 1012.3
20260508175703 20 120 11.3 22.5 0.00 0.00 0.00 88 1012.5
20260508174704 20 110 9.7 22.5 0.00 0.00 0.00 88 1012.5
20260508173703 20 110 6.4 22.5 0.00 0.00 0.00 88 1012.5
20260508172703 20 120 9.7 22.5 0.00 0.00 0.00 89 1012.7
20260508171703 20 130 8.0 22.5 0.00 0.00 0.00 89 1012.9
20260508170704 20 110 9.7 22.5 0.00 0.00 0.00 89 1013.0
20260508165703 20 110 9.7 22.5 0.00 0.00 0.00 89 1013.3
20260508164703 20 110 6.4 22.5 0.00 0.00 0.00 88 1013.4
20260508163703 20 110 8.0 22.5 0.00 0.00 0.00 88 1013.4
20260508162703 20 110 9.7 22.5 0.00 0.00 0.00 88 1013.5
20260508161704 20 120 9.7 22.5 0.00 0.00 0.00 88 1013.5
20260508160704 20 130 9.7 29.0 0.00 0.00 0.00 89 1013.5
20260508155703 20 110 6.4 29.0 0.00 0.00 0.00 89 1013.5
20260508154703 20 110 8.0 29.0 0.00 0.00 0.00 89 1013.6
20260508153703 20 120 8.0 29.0 0.00 0.00 0.00 89 1013.8
20260508152703 20 110 8.0 29.0 0.00 0.00 0.00 88 1013.9
20260508151704 20 120 9.7 29.0 0.00 0.00 0.00 86 1013.9
20260508150703 21 110 11.3 29.0 0.00 0.00 0.00 85 1014.0
20260508145704 21 120 8.0 29.0 0.00 0.00 0.00 84 1014.0
20260508144703 21 120 8.0 29.0 0.00 0.00 0.00 83 1014.0
20260508143704 21 110 9.7 29.0 0.00 0.00 0.00 83 1013.9
20260508142704 21 110 11.3 29.0 0.00 0.00 0.00 82 1013.8
20260508141704 21 110 8.0 29.0 0.00 0.00 0.00 82 1013.9
20260508140703 21 110 9.7 30.6 0.00 0.00 0.00 82 1014.0
20260508135704 21 120 8.0 30.6 0.00 0.00 0.00 82 1014.0
20260508134704 21 110 9.7 30.6 0.00 0.00 0.00 82 1013.8
20260508133703 21 110 9.7 30.6 0.00 0.00 0.00 82 1013.9
20260508132704 21 100 9.7 30.6 0.00 0.00 0.00 82 1013.9
20260508131703 21 100 11.3 30.6 0.00 0.00 0.00 82 1013.7
20260508130703 21 120 11.3 33.8 0.00 0.00 0.00 82 1013.7
20260508125703 21 110 11.3 33.8 0.00 0.00 0.00 81 1013.6
20260508124703 21 110 11.3 33.8 0.00 0.00 0.00 81 1013.5
20260508123703 21 120 9.7 33.8 0.00 0.00 0.00 81 1013.5
20260508122704 21 110 9.7 33.8 0.00 0.00 0.00 80 1013.3
20260508121704 21 110 11.3 33.8 0.00 0.00 0.00 80 1013.1
20260508120703 21 100 11.3 29.0 0.00 0.00 0.00 80 1013.0
20260508115703 21 100 11.3 29.0 0.00 0.00 0.00 81 1012.8
20260508114704 21 110 11.3 29.0 0.00 0.00 0.00 80 1012.8
20260508113704 22 110 12.9 29.0 0.00 0.00 0.00 81 1012.7
20260508112704 22 110 9.7 29.0 0.00 0.00 0.00 81 1012.6
20260508111704 22 100 11.3 29.0 0.00 0.00 0.00 81 1012.5
20260508110704 22 100 9.7 33.8 0.00 0.00 0.00 81 1012.4
20260508105704 22 110 9.7 33.8 0.00 0.00 0.00 79 1012.2
20260508104704 22 110 9.7 33.8 0.00 0.00 0.00 80 1012.2
20260508103703 22 100 9.7 33.8 0.00 0.00 0.00 79 1012.1
20260508102704 22 110 8.0 33.8 0.00 0.00 0.00 78 1011.9
20260508101703 22 100 11.3 33.8 0.00 0.00 0.00 80 1011.6
20260508100703 22 100 9.7 33.8 0.00 0.00 0.00 80 1011.5
20260508095704 22 100 12.9 33.8 0.00 0.00 0.00 81 1011.5
20260508094704 22 100 11.3 33.8 0.00 0.00 0.00 81 1011.4
20260508093703 22 110 9.7 33.8 0.00 0.00 0.00 81 1011.4
20260508092703 22 110 9.7 33.8 0.00 0.00 0.00 81 1011.4
20260508091703 22 100 11.3 33.8 0.00 0.00 0.00 82 1011.3
20260508090703 22 110 12.9 37.0 0.00 0.00 0.00 82 1011.2
20260508085703 22 100 14.5 37.0 0.00 0.00 0.00 83 1011.0
20260508084704 23 110 11.3 37.0 0.00 0.00 0.00 82 1011.0
20260508083703 23 110 14.5 37.0 0.00 0.00 0.00 82 1010.8
20260508082704 23 100 14.5 37.0 0.00 0.00 0.00 82 1010.6
20260508081703 23 110 14.5 37.0 0.00 0.25 0.00 82 1010.6
20260508080704 23 100 11.3 33.8 0.00 0.25 0.00 82 1010.5